Morris, MN

11:30 AM CDT on August 20, 2017 (GMT -0500)
Morris Municipal

Weather History for KMOX - August, 2014

Change the Weather History Date:

Monday, August 11, 2014

  Actual Average Record
Temperature  
Mean Temperature 65 °F -  
Max Temperature 75 °F 76 °F 89 °F (2002)
Min Temperature 55 °F 53 °F 42 °F (2004)
Growing Degree Days 15 (Base 50)    
Moisture  
Dew Point 54 °F    
Average Humidity 70    
Maximum Humidity 94    
Minimum Humidity 38    
Precipitation  
Precipitation 0.00 in - - ()
Sea Level Pressure  
Sea Level Pressure 30.11 in    
Wind  
Wind Speed 11 mph (NNW)    
Max Wind Speed 20 mph    
Max Gust Speed 29 mph    
Visibility 10 miles    
Events      
Averages and records for this station are not official NWS values.
T = Trace of Precipitation, MM = Missing Value Source: NWS Daily Summary

Daily Weather History Graph

Daily Weather History Graph

Search for Another Location

Airport or City:

Trip Planner

Search our weather history database for the weather conditions in past years. The results will help you decide how hot, cold, wet, or windy it might be!

Date:

Astronomy

Aug. 11, 2014 Rise Set
Actual Time 6:19 AM CDT 8:37 PM CDT
Civil Twilight 5:46 AM CDT 9:10 PM CDT
Nautical Twilight 5:05 AM CDT 9:51 PM CDT
Astronomical Twilight 4:19 AM CDT 10:36 PM CDT
Moon 8:58 PM CDT (8/11) 7:31 AM CDT (8/11)
Length of Visible Light 15h 23m
Length of Day
14h 18m
Full, 99% of the Moon is Illuminated
Aug 11
Full
Aug 17
Last Quarter
Aug 25
New
Sep 2
First Quarter
Sep 8
Full

Hourly Weather History & Observations

Time (CDT) Temp. Dew Point Humidity Pressure Visibility Wind Dir Wind Speed Gust Speed Precip Events Conditions
12:07 AM 60.8 °F 55.4 °F 82% 30.07 in 10.0 mi NNW 9.2 mph - N/A   Clear
12:28 AM 60.8 °F 55.4 °F 82% 30.07 in 10.0 mi NW 9.2 mph - N/A   Scattered Clouds
12:48 AM 60.8 °F 55.4 °F 82% 30.07 in 10.0 mi NW 9.2 mph - N/A   Scattered Clouds
1:08 AM 59.0 °F 55.4 °F 88% 30.08 in 10.0 mi NW 10.4 mph - N/A   Clear
1:27 AM 59.0 °F 55.4 °F 88% 30.08 in 10.0 mi NW 9.2 mph - N/A   Clear
1:48 AM 57.2 °F 55.4 °F 94% 30.07 in 10.0 mi NW 9.2 mph - N/A   Clear
2:08 AM 57.2 °F 55.4 °F 94% 30.07 in 10.0 mi NW 9.2 mph - N/A   Clear
2:27 AM 57.2 °F 55.4 °F 94% 30.07 in 10.0 mi NW 9.2 mph - N/A   Clear
2:48 AM 57.2 °F 55.4 °F 94% 30.07 in 10.0 mi NW 10.4 mph - N/A   Clear
3:07 AM 57.2 °F 55.4 °F 94% 30.07 in 10.0 mi NW 9.2 mph - N/A   Clear
3:28 AM 57.2 °F 55.4 °F 94% 30.07 in 10.0 mi NNW 9.2 mph - N/A   Scattered Clouds
3:47 AM 57.2 °F 55.4 °F 94% 30.07 in 10.0 mi NNW 8.1 mph - N/A   Scattered Clouds
4:07 AM 57.2 °F 55.4 °F 94% 30.08 in 10.0 mi NW 11.5 mph - N/A   Scattered Clouds
4:28 AM 57.2 °F 55.4 °F 94% 30.08 in 10.0 mi NNW 10.4 mph - N/A   Scattered Clouds
4:48 AM 57.2 °F 55.4 °F 94% 30.08 in 10.0 mi NW 11.5 mph - N/A   Scattered Clouds
5:07 AM 57.2 °F 55.4 °F 94% 30.08 in 10.0 mi NW 12.7 mph - N/A   Scattered Clouds
5:28 AM 57.2 °F 55.4 °F 94% 30.08 in 10.0 mi NW 12.7 mph - N/A   Mostly Cloudy
5:48 AM 57.2 °F 55.4 °F 94% 30.08 in 10.0 mi NW 9.2 mph - N/A   Scattered Clouds
6:07 AM 55.4 °F 53.6 °F 94% 30.09 in 10.0 mi NW 11.5 mph - N/A   Clear
6:28 AM 55.4 °F 53.6 °F 94% 30.09 in 10.0 mi NW 10.4 mph - N/A   Clear
6:48 AM 55.4 °F 53.6 °F 94% 30.09 in 10.0 mi NW 10.4 mph - N/A   Clear
7:08 AM 55.4 °F 53.6 °F 94% 30.10 in 10.0 mi NW 11.5 mph - N/A   Clear
7:27 AM 57.2 °F 55.4 °F 94% 30.10 in 10.0 mi NNW 11.5 mph - N/A   Clear
7:48 AM 59.0 °F 55.4 °F 88% 30.11 in 10.0 mi NNW 10.4 mph - N/A   Clear
8:08 AM 60.8 °F 55.4 °F 82% 30.11 in 10.0 mi NNW 9.2 mph - N/A   Clear
8:27 AM 62.6 °F 55.4 °F 77% 30.12 in 10.0 mi NNW 12.7 mph - N/A   Clear
8:48 AM 62.6 °F 55.4 °F 77% 30.12 in 10.0 mi NNW 12.7 mph - N/A   Clear
9:07 AM 64.4 °F 57.2 °F 77% 30.13 in 10.0 mi NNW 15.0 mph - N/A   Clear
9:28 AM 66.2 °F 57.2 °F 73% 30.13 in 10.0 mi NNW 12.7 mph 18.4 mph N/A   Clear
9:47 AM 66.2 °F 57.2 °F 73% 30.13 in 10.0 mi NNW 13.8 mph - N/A   Clear
10:07 AM 68.0 °F 57.2 °F 68% 30.14 in 10.0 mi NNW 13.8 mph 18.4 mph N/A   Clear
10:27 AM 69.8 °F 57.2 °F 64% 30.14 in 10.0 mi North 15.0 mph 19.6 mph N/A   Clear
10:48 AM 71.6 °F 57.2 °F 60% 30.14 in 10.0 mi North 18.4 mph - N/A   Clear
11:08 AM 71.6 °F 59.0 °F 64% 30.14 in 10.0 mi North 12.7 mph 18.4 mph N/A   Clear
11:27 AM 71.6 °F 57.2 °F 60% 30.14 in 10.0 mi North 13.8 mph 20.7 mph N/A   Scattered Clouds
11:48 AM 73.4 °F 53.6 °F 50% 30.14 in 10.0 mi North 16.1 mph 20.7 mph N/A   Clear
12:07 PM 73.4 °F 53.6 °F 50% 30.15 in 10.0 mi North 16.1 mph 24.2 mph N/A   Clear
12:28 PM 73.4 °F 53.6 °F 50% 30.14 in 10.0 mi North 16.1 mph 25.3 mph N/A   Clear
12:47 PM 73.4 °F 51.8 °F 47% 30.14 in 10.0 mi North 18.4 mph 21.9 mph N/A   Clear
1:08 PM 75.2 °F 51.8 °F 44% 30.14 in 10.0 mi North 13.8 mph 23.0 mph N/A   Clear
1:28 PM 75.2 °F 51.8 °F 44% 30.14 in 10.0 mi NNW 19.6 mph 24.2 mph N/A   Clear
1:48 PM 75.2 °F 51.8 °F 44% 30.14 in 10.0 mi North 18.4 mph 24.2 mph N/A   Clear
2:08 PM 75.2 °F 51.8 °F 44% 30.14 in 10.0 mi North 17.3 mph 26.5 mph N/A   Clear
2:28 PM 75.2 °F 50.0 °F 41% 30.14 in 10.0 mi NNW 19.6 mph 25.3 mph N/A   Clear
2:47 PM 75.2 °F 51.8 °F 44% 30.13 in 10.0 mi NNW 17.3 mph 23.0 mph N/A   Clear
3:07 PM 75.2 °F 51.8 °F 44% 30.14 in 10.0 mi NNW 16.1 mph 24.2 mph N/A   Clear
3:28 PM 75.2 °F 51.8 °F 44% 30.13 in 10.0 mi NNW 18.4 mph 28.8 mph N/A   Scattered Clouds
3:47 PM 75.2 °F 51.8 °F 44% 30.13 in 10.0 mi North 19.6 mph 23.0 mph N/A   Scattered Clouds
4:08 PM 75.2 °F 50.0 °F 41% 30.13 in 10.0 mi North 15.0 mph 24.2 mph N/A   Scattered Clouds
4:27 PM 75.2 °F 48.2 °F 38% 30.13 in 10.0 mi NNW 18.4 mph 28.8 mph N/A   Clear
4:48 PM 75.2 °F 48.2 °F 38% 30.13 in 10.0 mi NNW 18.4 mph 24.2 mph N/A   Clear
5:27 PM 75.2 °F 48.2 °F 38% 30.12 in 10.0 mi NNW 12.7 mph 21.9 mph N/A   Clear
5:48 PM 73.4 °F 48.2 °F 41% 30.12 in 10.0 mi NNW 16.1 mph 20.7 mph N/A   Clear
6:07 PM 73.4 °F 50.0 °F 44% 30.12 in 10.0 mi NNW 13.8 mph - N/A   Clear
6:27 PM 73.4 °F 51.8 °F 47% 30.12 in 10.0 mi North 11.5 mph 19.6 mph N/A   Scattered Clouds
6:47 PM 71.6 °F 50.0 °F 46% 30.12 in 10.0 mi North 10.4 mph - N/A   Scattered Clouds
7:08 PM 71.6 °F 51.8 °F 50% 30.12 in 10.0 mi North 8.1 mph - N/A   Clear
7:27 PM 69.8 °F 51.8 °F 53% 30.12 in 10.0 mi North 8.1 mph - N/A   Clear
7:48 PM 68.0 °F 51.8 °F 56% 30.12 in 10.0 mi NNW 6.9 mph - N/A   Clear
8:08 PM 66.2 °F 53.6 °F 64% 30.12 in 10.0 mi NNW 5.8 mph - N/A   Clear
8:28 PM 62.6 °F 53.6 °F 72% 30.12 in 10.0 mi NNW 6.9 mph - N/A   Clear
8:48 PM 62.6 °F 53.6 °F 72% 30.12 in 10.0 mi NW 6.9 mph - N/A   Clear
9:08 PM 60.8 °F 53.6 °F 77% 30.13 in 10.0 mi NW 6.9 mph - N/A   Clear
9:28 PM 59.0 °F 51.8 °F 77% 30.13 in 10.0 mi NW 4.6 mph - N/A   Clear
9:48 PM 57.2 °F 51.8 °F 82% 30.13 in 10.0 mi NW 8.1 mph - N/A   Clear
10:08 PM 57.2 °F 51.8 °F 82% 30.13 in 10.0 mi NNW 5.8 mph - N/A   Clear
10:28 PM - - N/A% - 10.0 mi NNW 6.9 mph - N/A   Clear
10:47 PM 57.2 °F 51.8 °F 82% 30.13 in 10.0 mi NNW 5.8 mph - N/A   Clear
10:54 PM 57.2 °F 51.8 °F 82% 30.13 in 10.0 mi North - - N/A   Clear
11:27 PM 55.4 °F 51.8 °F 88% 30.13 in 10.0 mi NW 5.8 mph - N/A   Clear
11:47 PM 55.4 °F 51.8 °F 88% 30.13 in 10.0 mi NNW 6.9 mph - N/A   Clear